TimeEDT,TemperatureF,Dew PointF,Humidity,Sea Level PressureIn,VisibilityMPH,Wind Direction,Wind SpeedMPH,Gust SpeedMPH,PrecipitationIn,Events,Conditions,WindDirDegrees,DateUTC
12:54 AM,70.0,64.9,84,29.99,10.0,South,9.2,-,N/A,,Overcast,180,2013-10-04 04:54:00
1:54 AM,68.0,64.0,87,29.99,10.0,SW,5.8,-,N/A,,Overcast,230,2013-10-04 05:54:00
2:54 AM,69.1,64.9,87,30.00,10.0,South,5.8,-,N/A,,Overcast,190,2013-10-04 06:54:00
3:54 AM,69.1,64.9,87,30.00,10.0,South,8.1,-,N/A,,Overcast,170,2013-10-04 07:54:00
4:54 AM,68.0,64.9,90,29.99,10.0,South,6.9,-,N/A,,Mostly Cloudy,180,2013-10-04 08:54:00
5:54 AM,66.9,64.9,93,30.00,8.0,South,6.9,-,N/A,,Scattered Clouds,170,2013-10-04 09:54:00
6:54 AM,66.0,64.0,93,30.02,6.0,SSE,5.8,-,N/A,,Scattered Clouds,160,2013-10-04 10:54:00
7:54 AM,66.0,64.0,93,30.03,6.0,SSE,5.8,-,N/A,,Scattered Clouds,160,2013-10-04 11:54:00
8:54 AM,66.9,64.9,93,30.03,7.0,SSE,4.6,-,N/A,,Scattered Clouds,160,2013-10-04 12:54:00
9:54 AM,72.0,66.0,81,30.04,10.0,SSW,6.9,-,N/A,,Mostly Cloudy,210,2013-10-04 13:54:00
10:54 AM,71.1,66.0,84,30.06,10.0,SSW,12.7,-,N/A,,Mostly Cloudy,210,2013-10-04 14:54:00
11:07 AM,71.6,66.2,83,30.07,10.0,South,12.7,-,N/A,Rain,Light Rain,190,2013-10-04 15:07:00
11:22 AM,69.8,66.2,88,30.06,10.0,SW,8.1,-,N/A,Rain,Light Rain,220,2013-10-04 15:22:00
11:54 AM,71.1,66.9,87,30.05,10.0,South,8.1,-,N/A,Rain,Light Rain,180,2013-10-04 15:54:00
12:54 PM,73.0,68.0,84,30.05,10.0,South,5.8,-,N/A,,Mostly Cloudy,180,2013-10-04 16:54:00
1:54 PM,77.0,66.9,71,30.03,10.0,South,9.2,-,N/A,,Mostly Cloudy,180,2013-10-04 17:54:00
2:54 PM,79.0,69.1,72,30.01,10.0,SW,9.2,-,N/A,,Scattered Clouds,220,2013-10-04 18:54:00
3:54 PM,81.0,68.0,65,29.99,10.0,South,12.7,-,N/A,,Mostly Cloudy,190,2013-10-04 19:54:00
4:54 PM,79.0,66.9,66,29.99,10.0,SSW,10.4,-,N/A,,Mostly Cloudy,210,2013-10-04 20:54:00
5:54 PM,78.1,66.9,68,30.00,10.0,SSW,6.9,-,N/A,,Mostly Cloudy,210,2013-10-04 21:54:00
6:54 PM,78.1,68.0,71,29.99,10.0,South,8.1,-,N/A,,Mostly Cloudy,180,2013-10-04 22:54:00
7:54 PM,75.0,68.0,79,29.99,10.0,SSE,5.8,-,N/A,,Mostly Cloudy,160,2013-10-04 23:54:00
8:54 PM,73.9,68.0,82,30.01,10.0,South,6.9,-,N/A,,Mostly Cloudy,170,2013-10-05 00:54:00
9:54 PM,73.0,68.0,84,30.01,10.0,South,6.9,-,N/A,,Mostly Cloudy,170,2013-10-05 01:54:00
10:54 PM,73.0,68.0,84,30.02,10.0,South,10.4,-,N/A,,Mostly Cloudy,170,2013-10-05 02:54:00
11:54 PM,72.0,66.9,84,30.02,10.0,South,8.1,-,N/A,,Mostly Cloudy,170,2013-10-05 03:54:00